Change the Weather History Date:

Tuesday, November 6, 2012

  Actual Average Record
Temperature  
Mean Temperature 44 °F 34 °F  
Max Temperature 60 °F 46 °F 64 °F (1983)
Min Temperature 27 °F 21 °F 5 °F (2000)
Degree Days  
Heating Degree Days 21 31  
Month to date heating degree days 143 180  
Since 1 July heating degree days 1146 1435  
Cooling Degree Days 0 0  
Month to date cooling degree days 0 0  
Year to date cooling degree days 106 39  
Moisture  
Dew Point 20 °F    
Average Humidity 46    
Maximum Humidity 78    
Minimum Humidity 14    
Precipitation  
Precipitation 0.00 in 0.05 in 0.38 in (1987)
Month to date precipitation 0.00 0.32  
Year to date precipitation 11.51 15.07  
Sea Level Pressure  
Sea Level Pressure 30.25 in    
Wind  
Wind Speed 6 mph (SSW)    
Max Wind Speed 13 mph    
Max Gust Speed 17 mph    
Visibility 10 miles    
Events      
T = Trace of Precipitation, MM = Missing Value Source: NWS Daily Summary

Daily Weather History Graph

Daily Weather History Graph

Search for Another Location

Airport or City:

Trip Planner

Search our weather history database for the weather conditions in past years. The results will help you decide how hot, cold, wet, or windy it might be!

Date:

Astronomy

Nov. 06, 2012 Rise Set
Actual Time 6:41 AM MST 5:00 PM MST
Civil Twilight 6:13 AM MST 5:28 PM MST
Nautical Twilight 5:41 AM MST 6:00 PM MST
Astronomical Twilight 5:09 AM MST 6:31 PM MST
Moon 11:41 PM MST (11/6) 12:35 PM MST (11/6)
Length of Visible Light 11h 15m
Length of Day
10h 18m
Waning Gibbous, 52% of the Moon is Illuminated
Nov 6
Waning Gibbous
Nov 6
Last Quarter
Nov 13
New
Nov 20
First Quarter
Nov 28
Full

Hourly Weather History & Observations

Time (MST) Temp. Windchill Dew Point Humidity Pressure Visibility Wind Dir Wind Speed Gust Speed Precip Events Conditions
12:53 AM 32.0 °F 27.5 °F 24.1 °F 73% 30.24 in 10.0 mi South 4.6 mph - N/A   Clear
1:53 AM 30.0 °F 24.1 °F 23.0 °F 75% 30.27 in 10.0 mi SSW 5.8 mph - N/A   Clear
2:53 AM 28.9 °F 22.8 °F 23.0 °F 78% 30.27 in 10.0 mi South 5.8 mph - N/A   Clear
3:53 AM 30.0 °F 24.1 °F 23.0 °F 75% 30.26 in 10.0 mi South 5.8 mph - N/A   Clear
5:53 AM 30.9 °F 24.3 °F 23.0 °F 72% 30.32 in 10.0 mi SSW 6.9 mph - N/A   Clear
6:53 AM 30.9 °F 24.3 °F 23.0 °F 72% 30.35 in 10.0 mi SW 6.9 mph - N/A   Clear
7:53 AM 37.0 °F 32.4 °F 25.0 °F 62% 30.35 in 10.0 mi SSW 5.8 mph - N/A   Clear
8:53 AM 43.0 °F 41.3 °F 25.0 °F 49% 30.33 in 10.0 mi SE 3.5 mph - N/A   Clear
9:53 AM 48.9 °F - 24.1 °F 38% 30.30 in 10.0 mi Calm Calm - N/A   Clear
10:53 AM 54.0 °F - 25.0 °F 33% 30.27 in 10.0 mi Calm Calm - N/A   Clear
11:53 AM 57.0 °F - 19.0 °F 23% 30.20 in 10.0 mi NE 6.9 mph - N/A   Clear
12:53 PM 59.0 °F - 12.0 °F 16% 30.17 in 10.0 mi NNW 9.2 mph 16.1 mph N/A   Clear
1:53 PM 59.0 °F - 10.0 °F 14% 30.17 in 10.0 mi NNE 6.9 mph - N/A   Clear
2:53 PM 60.1 °F - 12.0 °F 15% 30.16 in 10.0 mi NNW 8.1 mph - N/A   Clear
3:53 PM 57.9 °F - 14.0 °F 18% 30.17 in 10.0 mi North 6.9 mph - N/A   Clear
4:53 PM 48.0 °F - 18.0 °F 30% 30.21 in 10.0 mi SW 5.8 mph - N/A   Clear
5:53 PM 42.1 °F 36.6 °F 18.0 °F 38% 30.26 in 10.0 mi SW 9.2 mph - N/A   Clear
6:53 PM 39.9 °F 33.9 °F 18.0 °F 41% 30.29 in 10.0 mi SSW 9.2 mph - N/A   Clear
7:53 PM 39.0 °F 33.4 °F 18.0 °F 43% 30.26 in 10.0 mi SSW 8.1 mph - N/A   Clear
8:53 PM 37.0 °F 31.0 °F 18.0 °F 46% 30.24 in 10.0 mi SSW 8.1 mph - N/A   Clear
9:53 PM 37.0 °F 31.0 °F 18.0 °F 46% 30.21 in 10.0 mi SSW 8.1 mph - N/A   Clear
10:53 PM 36.0 °F 29.6 °F 19.0 °F 50% 30.19 in 10.0 mi SSW 8.1 mph - N/A   Clear
11:53 PM 33.1 °F 28.7 °F 19.0 °F 56% 30.18 in 10.0 mi SSW 4.6 mph - N/A   Clear